Hourly Weather Hartford

Today, 3 August, Monday

Time Temperature Precipitation Wind Pressure Humidity
00:00 +13°C° 0 mm 2 mps 758 mmHg 82%
01:00 +13°C° 0.1 mm 2 mps 758 mmHg 84%
02:00 +12°C° 0.1 mm 2 mps 758 mmHg 86%
03:00 +12°C° 0.1 mm 2 mps 758 mmHg 87%
04:00 +12°C° 0 mm 2 mps 758 mmHg 86%
05:00 +12°C° 0 mm 2 mps 758 mmHg 86%
06:00 +13°C° 0 mm 1 mps 758 mmHg 88%
07:00 +14°C° 0.1 mm 2 mps 758 mmHg 81%
08:00 +16°C° 0.1 mm 3 mps 758 mmHg 74%
09:00 +17°C° 0.1 mm 3 mps 759 mmHg 68%
10:00 +17°C° 0.1 mm 4 mps 758 mmHg 65%
11:00 +16°C° 0.1 mm 5 mps 758 mmHg 62%
12:00 +17°C° 0.1 mm 5 mps 758 mmHg 59%
13:00 +17°C° 0 mm 5 mps 758 mmHg 57%
14:00 +17°C° 0 mm 5 mps 758 mmHg 55%
15:00 +17°C° 0 mm 5 mps 758 mmHg 53%
16:00 +18°C° 0 mm 4 mps 758 mmHg 55%
17:00 +17°C° 0 mm 4 mps 758 mmHg 58%
18:00 +17°C° 0 mm 3 mps 758 mmHg 60%
19:00 +14°C° 0 mm 3 mps 758 mmHg 64%
20:00 +14°C° 0 mm 2 mps 759 mmHg 69%
21:00 +13°C° 0 mm 2 mps 759 mmHg 73%
22:00 +12°C° 0 mm 1 mps 759 mmHg 76%
23:00 +12°C° 0 mm 1 mps 759 mmHg 78%

Tomorrow, 4 August, Tuesday

Time Temperature Precipitation Wind Pressure Humidity
00:00 +11°C° 0 mm 1 mps 759 mmHg 81%
01:00 +11°C° 0 mm 1 mps 759 mmHg 82%
02:00 +11°C° 0 mm 1 mps 759 mmHg 83%
03:00 +9°C° 0 mm 2 mps 759 mmHg 84%
04:00 +10°C° 0 mm 2 mps 758 mmHg 82%
05:00 +10°C° 0 mm 2 mps 758 mmHg 80%
06:00 +11°C° 0 mm 3 mps 757 mmHg 78%
07:00 +12°C° 0 mm 3 mps 757 mmHg 78%
08:00 +13°C° 0 mm 3 mps 757 mmHg 77%
09:00 +14°C° 0 mm 4 mps 757 mmHg 77%
10:00 +14°C° 0.1 mm 4 mps 757 mmHg 78%
11:00 +14°C° 0.1 mm 5 mps 756 mmHg 78%
12:00 +14°C° 0.1 mm 5 mps 756 mmHg 79%
13:00 +16°C° 0 mm 5 mps 755 mmHg 77%
14:00 +17°C° 0 mm 6 mps 755 mmHg 74%
15:00 +19°C° 0 mm 6 mps 754 mmHg 72%
16:00 +19°C° 0 mm 6 mps 754 mmHg 73%
17:00 +19°C° 0 mm 6 mps 753 mmHg 74%
18:00 +19°C° 0 mm 6 mps 753 mmHg 75%
19:00 +19°C° 0 mm 6 mps 753 mmHg 78%
20:00 +17°C° 0 mm 6 mps 753 mmHg 81%
21:00 +16°C° 0 mm 6 mps 753 mmHg 84%
22:00 +16°C° 0 mm 6 mps 753 mmHg 84%
23:00 +16°C° 0 mm 5 mps 753 mmHg 84%

Day after tomorrow, 5 August, Wednesday

Time Temperature Precipitation Wind Pressure Humidity
00:00 +16°C° 0 mm 5 mps 753 mmHg 84%
01:00 +16°C° 0 mm 5 mps 753 mmHg 85%
02:00 +15°C° 0 mm 5 mps 753 mmHg 86%
03:00 +15°C° 0 mm 5 mps 753 mmHg 86%
04:00 +17°C° 0 mm 4 mps 752 mmHg 85%
05:00 +17°C° 0 mm 4 mps 752 mmHg 84%
06:00 +17°C° 0 mm 4 mps 752 mmHg 84%
07:00 +17°C° 0 mm 5 mps 752 mmHg 78%
08:00 +20°C° 0 mm 6 mps 752 mmHg 72%
09:00 +21°C° 0 mm 7 mps 753 mmHg 67%
10:00 +22°C° 0 mm 7 mps 753 mmHg 65%
11:00 +23°C° 0 mm 8 mps 753 mmHg 64%
12:00 +23°C° 0 mm 8 mps 752 mmHg 63%
13:00 +22°C° 0.1 mm 7 mps 753 mmHg 67%
14:00 +21°C° 0.1 mm 7 mps 753 mmHg 72%
15:00 +20°C° 0.1 mm 6 mps 753 mmHg 77%
16:00 +20°C° 0 mm 6 mps 753 mmHg 78%
17:00 +21°C° 0 mm 5 mps 753 mmHg 79%
18:00 +21°C° 0 mm 5 mps 754 mmHg 79%
19:00 +20°C° 0.1 mm 5 mps 754 mmHg 83%
20:00 +19°C° 0.1 mm 4 mps 755 mmHg 86%
21:00 +19°C° 0.1 mm 4 mps 755 mmHg 90%
22:00 +18°C° 0 mm 3 mps 755 mmHg 91%
23:00 +18°C° 0 mm 3 mps 755 mmHg 92%

6 August, Thursday

Time Temperature Precipitation Wind Pressure Humidity
00:00 +18°C° 0 mm 3 mps 756 mmHg 93%
01:00 +18°C° 0 mm 3 mps 756 mmHg 94%
02:00 +18°C° 0 mm 3 mps 756 mmHg 94%
03:00 +18°C° 0 mm 2 mps 757 mmHg 95%
04:00 +18°C° 0 mm 3 mps 757 mmHg 95%
05:00 +18°C° 0 mm 3 mps 757 mmHg 94%
06:00 +18°C° 0 mm 3 mps 757 mmHg 94%
07:00 +19°C° 0 mm 3 mps 757 mmHg 92%
08:00 +19°C° 0 mm 4 mps 758 mmHg 89%
09:00 +20°C° 0 mm 4 mps 758 mmHg 86%
10:00 +21°C° 0 mm 4 mps 758 mmHg 82%
11:00 +22°C° 0 mm 5 mps 758 mmHg 78%
12:00 +23°C° 0 mm 5 mps 758 mmHg 74%
13:00 +25°C° 0.1 mm 5 mps 758 mmHg 70%
14:00 +26°C° 0.1 mm 5 mps 758 mmHg 66%
15:00 +26°C° 0.1 mm 4 mps 758 mmHg 62%
16:00 +26°C° 0 mm 4 mps 758 mmHg 63%
17:00 +26°C° 0 mm 3 mps 758 mmHg 63%
18:00 +26°C° 0 mm 3 mps 758 mmHg 64%
19:00 +24°C° 0 mm 2 mps 758 mmHg 68%
20:00 +23°C° 0 mm 2 mps 758 mmHg 72%
21:00 +20°C° 0 mm 2 mps 759 mmHg 76%
22:00 +19°C° 0 mm 2 mps 759 mmHg 77%
23:00 +19°C° 0 mm 2 mps 759 mmHg 78%

7 August, Friday

Time Temperature Precipitation Wind Pressure Humidity
00:00 +18°C° 0 mm 2 mps 759 mmHg 79%
01:00 +17°C° 0 mm 2 mps 759 mmHg 80%
02:00 +17°C° 0 mm 2 mps 759 mmHg 82%
03:00 +17°C° 0 mm 2 mps 759 mmHg 83%
04:00 +18°C° 0 mm 1 mps 760 mmHg 83%
05:00 +18°C° 0 mm 1 mps 760 mmHg 83%
06:00 +19°C° 0 mm 1 mps 760 mmHg 84%
07:00 +20°C° 0 mm 1 mps 760 mmHg 78%
08:00 +22°C° 0 mm 1 mps 760 mmHg 73%
09:00 +23°C° 0 mm 1 mps 760 mmHg 68%
10:00 +25°C° 0 mm 1 mps 760 mmHg 64%
11:00 +26°C° 0 mm 2 mps 760 mmHg 60%
12:00 +27°C° 0 mm 2 mps 760 mmHg 56%
13:00 +27°C° 0 mm 2 mps 760 mmHg 55%
14:00 +27°C° 0 mm 2 mps 760 mmHg 54%
15:00 +28°C° 0 mm 2 mps 760 mmHg 52%
16:00 +27°C° 0 mm 3 mps 760 mmHg 57%
17:00 +26°C° 0 mm 3 mps 760 mmHg 62%
18:00 +25°C° 0 mm 3 mps 760 mmHg 67%
19:00 +24°C° 0 mm 2 mps 760 mmHg 71%
20:00 +21°C° 0 mm 2 mps 760 mmHg 75%
21:00 +20°C° 0 mm 2 mps 760 mmHg 79%
22:00 +19°C° 0 mm 2 mps 760 mmHg 80%
23:00 +19°C° 0 mm 2 mps 761 mmHg 81%

8 August, Saturday

Time Temperature Precipitation Wind Pressure Humidity
00:00 +19°C° 0 mm 2 mps 761 mmHg 81%
01:00 +19°C° 0 mm 1 mps 761 mmHg 84%
02:00 +18°C° 0 mm 1 mps 761 mmHg 88%
03:00 +16°C° 0 mm 1 mps 760 mmHg 91%
04:00 +18°C° 0 mm 1 mps 761 mmHg 90%
05:00 +18°C° 0 mm 1 mps 761 mmHg 90%
06:00 +18°C° 0 mm 1 mps 761 mmHg 89%
07:00 +18°C° 0 mm 2 mps 762 mmHg 85%
08:00 +19°C° 0 mm 3 mps 762 mmHg 81%
09:00 +20°C° 0 mm 3 mps 762 mmHg 76%
10:00 +21°C° 0 mm 4 mps 762 mmHg 72%
11:00 +21°C° 0 mm 4 mps 762 mmHg 67%
12:00 +22°C° 0 mm 4 mps 762 mmHg 63%
13:00 +22°C° 0 mm 4 mps 762 mmHg 58%
14:00 +22°C° 0 mm 4 mps 762 mmHg 54%
15:00 +22°C° 0 mm 4 mps 762 mmHg 49%
16:00 +21°C° 0 mm 4 mps 762 mmHg 52%
17:00 +20°C° 0 mm 3 mps 763 mmHg 55%
18:00 +20°C° 0 mm 3 mps 763 mmHg 58%
19:00 +18°C° 0 mm 3 mps 763 mmHg 61%
20:00 +17°C° 0 mm 2 mps 763 mmHg 63%
21:00 +16°C° 0 mm 2 mps 763 mmHg 66%
22:00 +16°C° 0 mm 2 mps 764 mmHg 69%
23:00 +16°C° 0 mm 2 mps 764 mmHg 72%
Show more